Location: Goudex
(43.3760°N, 0.9543°E)
Time: 12:28:50
(UTC+00:00)

Cosmos 1766 Rocket - Pass Details

Date: 20 November 2019
Orbit: 606 x 632 km, 82.5° (Epoch: 15 December)

Event Time Altitude Azimuth Distance (km) Brightness Sun altitude
Rises 04:15:43 0° 173° (S) 2,849 7.1 -28.8°
Reaches altitude 10° 04:17:57 10° 168° (SSE) 1,951 6.2 -28.4°
Maximum altitude 04:22:07 50° 94° (E) 783 4.3 -27.6°
Drops below altitude 10° 04:26:21 10° 19° (NNE) 1,976 6.3 -26.8°
Sets 04:28:37 0° 14° (NNE) 2,889 7.1 -26.4°
